GW0828 Weather Reports


time (UTC)temp
C
wind
direction
speed
KPH
gust
KPH
rain 1hr
cm
rain 24hr
cm
rain mn
cm
humidity
%
barometer
mb
20260906212537 30 117 4.8 12.9 0.00 0.00 0.00 38 1016.0
20260906212037 30 150 6.4 12.9 0.00 0.00 0.00 39 1016.1
20260906211603 30 134 6.4 14.5 0.00 0.00 0.00 41 1016.1
20260906211037 30 177 6.4 14.5 0.00 0.00 0.00 39 1016.2
20260906210539 30 91 4.8 12.9 0.00 0.00 0.00 42 1016.3
20260906210117 30 110 1.6 12.9 0.00 0.00 0.00 45 1016.3
20260906205534 29 127 4.8 14.5 0.00 0.00 0.00 43 1016.3
20260906205037 29 71 3.2 16.1 0.00 0.00 0.00 40 1016.4
20260906204603 29 84 8.0 16.1 0.00 0.00 0.00 40 1016.4
20260906204037 29 94 3.2 12.9 0.00 0.00 0.00 40 1016.5
20260906203538 29 152 3.2 12.9 0.00 0.00 0.00 40 1016.5
20260906203059 29 92 3.2 14.5 0.00 0.00 0.00 42 1016.5
20260906202538 29 135 6.4 17.7 0.00 0.00 0.00 43 1016.6
20260906202041 28 156 4.8 17.7 0.00 0.00 0.00 45 1016.5
20260906201556 28 95 6.4 14.5 0.00 0.00 0.00 43 1016.6
20260906201038 28 81 6.4 16.1 0.00 0.00 0.00 44 1016.7
20260906200534 28 96 9.7 16.1 0.00 0.00 0.00 43 1016.8
20260906200059 28 83 4.8 14.5 0.00 0.00 0.00 48 1016.9
20260906195534 28 40 3.2 14.5 0.00 0.00 0.00 45 1017.0
20260906195037 28 74 6.4 17.7 0.00 0.00 0.00 46 1017.0
20260906194558 28 0 3.2 19.3 0.00 0.00 0.00 46 1016.9
20260906194036 28 102 9.7 19.3 0.00 0.00 0.00 45 1017.0
20260906193541 28 59 8.0 19.3 0.00 0.00 0.00 45 1017.0
20260906193057 28 36 4.8 17.7 0.00 0.00 0.00 47 1017.1
20260906192537 28 73 4.8 16.1 0.00 0.00 0.00 45 1017.1
20260906192037 28 89 9.7 16.1 0.00 0.00 0.00 49 1017.2
20260906191606 28 142 6.4 14.5 0.00 0.00 0.00 44 1017.2
20260906191038 28 84 3.2 14.5 0.00 0.00 0.00 49 1017.4
20260906190537 28 75 4.8 14.5 0.00 0.00 0.00 48 1017.5
20260906190054 28 96 6.4 14.5 0.00 0.00 0.00 49 1017.7
20260906185534 28 67 3.2 11.3 0.00 0.00 0.00 50 1017.8
20260906185038 28 225 3.2 9.7 0.00 0.00 0.00 46 1018.0
20260906184600 27 104 1.6 9.7 0.00 0.00 0.00 50 1018.1
20260906184040 27 73 1.6 9.7 0.00 0.00 0.00 52 1018.2
20260906183537 27 209 1.6 9.7 0.00 0.00 0.00 51 1018.2
20260906183059 27 118 1.6 8.0 0.00 0.00 0.00 53 1018.3
20260906182537 27 352 3.2 8.0 0.00 0.00 0.00 52 1018.4
20260906182037 27 29 1.6 8.0 0.00 0.00 0.00 52 1018.6
20260906181559 26 34 1.6 9.7 0.00 0.00 0.00 52 1018.7
20260906181037 26 110 1.6 11.3 0.00 0.00 0.00 53 1018.8
20260906180537 26 114 4.8 11.3 0.00 0.00 0.00 54 1018.8
20260906180130 26 194 1.6 6.4 0.00 0.00 0.00 55 1018.8
20260906175538 26 0 1.6 6.4 0.00 0.00 0.00 56 1018.9
20260906175036 26 0 0.0 6.4 0.00 0.00 0.00 54 1019.1
20260906174603 26 76 3.2 9.7 0.00 0.00 0.00 56 1019.2
20260906174038 26 53 1.6 9.7 0.00 0.00 0.00 54 1019.4
20260906173537 26 98 3.2 8.0 0.00 0.00 0.00 54 1019.5
20260906173100 25 243 0.0 11.3 0.00 0.00 0.00 56 1019.6
20260906172539 25 0 3.2 11.3 0.00 0.00 0.00 54 1019.7
20260906172037 25 192 6.4 11.3 0.00 0.00 0.00 58 1019.8
20260906171606 25 79 0.0 6.4 0.00 0.00 0.00 58 1020.0
20260906171038 25 88 1.6 6.4 0.00 0.00 0.00 60 1020.1
20260906170534 24 80 3.2 11.3 0.00 0.00 0.00 58 1020.1
20260906170106 24 17 3.2 11.3 0.00 0.00 0.00 62 1020.1
20260906165534 24 60 4.8 11.3 0.00 0.00 0.00 60 1020.1
20260906165033 23 65 1.6 9.7 0.00 0.00 0.00 61 1020.1
20260906164556 24 34 1.6 9.7 0.00 0.00 0.00 60 1020.1
20260906164038 23 153 1.6 12.9 0.00 0.00 0.00 62 1020.0
20260906163538 23 109 3.2 12.9 0.00 0.00 0.00 65 1020.1
20260906163100 23 74 4.8 12.9 0.00 0.00 0.00 63 1020.0
20260906162537 23 78 3.2 11.3 0.00 0.00 0.00 64 1020.0
20260906162041 23 83 3.2 11.3 0.00 0.00 0.00 63 1020.0
20260906161556 22 55 3.2 9.7 0.00 0.00 0.00 63 1020.0
20260906161034 22 100 3.2 8.0 0.00 0.00 0.00 65 1020.1
20260906160537 23 163 1.6 4.8 0.00 0.00 0.00 65 1020.1
20260906160052 22 106 1.6 12.9 0.00 0.00 0.00 66 1020.2
20260906155534 21 42 4.8 12.9 0.00 0.00 0.00 66 1020.2
20260906155039 22 61 3.2 11.3 0.00 0.00 0.00 68 1020.1
20260906154604 22 72 3.2 8.0 0.00 0.00 0.00 66 1020.1
20260906154037 21 0 3.2 11.3 0.00 0.00 0.00 68 1020.3
20260906153537 22 36 1.6 11.3 0.00 0.00 0.00 65 1020.3
20260906153115 21 84 4.8 8.0 0.00 0.00 0.00 67 1020.3
20260906152538 22 29 0.0 6.4 0.00 0.00 0.00 65 1020.4
20260906152037 21 0 0.0 9.7 0.00 0.00 0.00 67 1020.4
20260906151601 21 6 1.6 9.7 0.00 0.00 0.00 67 1020.5
20260906151037 21 0 0.0 4.8 0.00 0.00 0.00 69 1020.5
20260906150537 21 56 0.0 4.8 0.00 0.00 0.00 69 1020.5
20260906150100 20 0 0.0 4.8 0.00 0.00 0.00 71 1020.5
20260906145537 20 69 0.0 4.8 0.00 0.00 0.00 71 1020.5
20260906145037 20 68 1.6 4.8 0.00 0.00 0.00 71 1020.5
20260906144600 20 342 0.0 4.8 0.00 0.00 0.00 72 1020.6
20260906144036 19 0 0.0 3.2 0.00 0.00 0.00 76 1020.6
20260906143538 18 0 0.0 6.4 0.00 0.00 0.00 76 1020.5
20260906143056 18 0 0.0 6.4 0.00 0.00 0.00 76 1020.5
20260906142537 18 0 1.6 6.4 0.00 0.00 0.00 77 1020.4
20260906142037 18 335 0.0 4.8 0.00 0.00 0.00 79 1020.4
20260906141558 17 0 0.0 4.8 0.00 0.00 0.00 80 1020.5
20260906141037 17 0 1.6 4.8 0.00 0.00 0.00 80 1020.5
20260906140536 17 0 0.0 4.8 0.00 0.00 0.00 81 1020.6
20260906140109 17 0 0.0 4.8 0.00 0.00 0.00 81 1020.4
20260906135537 17 0 1.6 4.8 0.00 0.00 0.00 82 1020.4
20260906135036 16 0 0.0 3.2 0.00 0.00 0.00 82 1020.3
20260906134616 16 0 0.0 3.2 0.00 0.00 0.00 82 1020.4
20260906134038 16 0 0.0 4.8 0.00 0.00 0.00 82 1020.5
20260906133537 16 0 1.6 6.4 0.00 0.00 0.00 82 1020.3
20260906133104 16 37 3.2 6.4 0.00 0.00 0.00 82 1020.3
20260906132539 16 51 1.6 6.4 0.00 0.00 0.00 83 1020.3
20260906132038 16 33 1.6 6.4 0.00 0.00 0.00 83 1020.3
20260906131556 16 38 1.6 6.4 0.00 0.00 0.00 83 1020.2
20260906131037 16 342 1.6 6.4 0.00 0.00 0.00 84 1020.1
20260906130538 16 24 3.2 6.4 0.00 0.00 0.00 85 1020.2
20260906130055 15 19 1.6 4.8 0.00 0.00 0.00 85 1020.2
20260906125537 15 36 1.6 4.8 0.00 0.00 0.00 84 1020.2
20260906125036 15 0 1.6 6.4 0.00 0.00 0.00 84 1020.3
20260906124557 15 14 1.6 6.4 0.00 0.00 0.00 84 1020.1
20260906124037 16 19 3.2 6.4 0.00 0.00 0.00 83 1020.1
20260906123537 16 31 3.2 6.4 0.00 0.00 0.00 83 1020.1
20260906123102 16 36 3.2 6.4 0.00 0.00 0.00 83 1020.2
20260906122534 16 6 3.2 6.4 0.00 0.00 0.00 83 1020.3
20260906122037 16 42 1.6 6.4 0.00 0.00 0.00 83 1020.2
20260906121610 16 40 3.2 6.4 0.00 0.00 0.00 83 1020.2
20260906121033 16 54 0.0 3.2 0.00 0.00 0.00 82 1020.2
20260906120539 16 0 0.0 3.2 0.00 0.00 0.00 82 1020.1
20260906120100 16 0 0.0 4.8 0.00 0.00 0.00 82 1020.1
20260906115536 16 0 1.6 4.8 0.00 0.00 0.00 82 1020.1
20260906115039 16 31 1.6 4.8 0.00 0.00 0.00 82 1020.1
20260906114557 17 31 1.6 4.8 0.00 0.00 0.00 82 1020.2
20260906114036 17 10 1.6 4.8 0.00 0.00 0.00 82 1020.1
20260906113536 17 42 1.6 4.8 0.00 0.00 0.00 82 1020.0
20260906113102 17 0 1.6 4.8 0.00 0.00 0.00 81 1020.0
20260906112536 17 19 3.2 4.8 0.00 0.00 0.00 81 1020.1
20260906112037 17 16 1.6 6.4 0.00 0.00 0.00 80 1020.0
20260906111607 17 19 1.6 8.0 0.00 0.00 0.00 80 1020.1
20260906111036 18 19 3.2 8.0 0.00 0.00 0.00 80 1019.9
20260906110536 18 42 4.8 8.0 0.00 0.00 0.00 79 1019.9
20260906105533 18 50 3.2 11.3 0.00 0.00 0.00 79 1019.8
20260906105037 18 74 4.8 11.3 0.00 0.00 0.00 79 1019.8
20260906104559 18 61 3.2 8.0 0.00 0.00 0.00 78 1019.7
20260906104037 18 54 3.2 11.3 0.00 0.00 0.00 78 1019.9
20260906103536 18 69 4.8 14.5 0.00 0.00 0.00 78 1019.9
20260906103108 18 75 8.0 14.5 0.00 0.00 0.00 78 1019.8
20260906102539 18 67 4.8 14.5 0.00 0.00 0.00 77 1019.9
20260906102037 18 67 6.4 14.5 0.00 0.00 0.00 77 1019.9
20260906101559 18 56 4.8 11.3 0.00 0.00 0.00 76 1019.9
20260906101036 18 69 4.8 11.3 0.00 0.00 0.00 76 1019.9
20260906100538 18 52 6.4 11.3 0.00 0.00 0.00 75 1019.9
20260906100100 19 48 4.8 11.3 0.00 0.00 0.00 75 1019.9
20260906095533 19 57 4.8 11.3 0.00 0.00 0.00 74 1019.9
20260906095038 19 63 3.2 9.7 0.00 0.00 0.00 73 1019.8
20260906094550 19 57 4.8 9.7 0.00 0.00 0.00 73 1019.8
20260906094033 19 47 3.2 9.7 0.00 0.00 0.00 72 1019.6
20260906093537 19 58 3.2 11.3 0.00 0.00 0.00 72 1019.4
20260906093102 19 54 4.8 11.3 0.00 0.00 0.00 72 1019.4
20260906092540 19 55 3.2 8.0 0.00 0.00 0.00 72 1019.3
20260906092037 19 59 3.2 8.0 0.00 0.00 0.00 72 1019.2
20260906091558 19 15 3.2 8.0 0.00 0.00 0.00 71 1019.1
20260906091039 19 64 3.2 8.0 0.00 0.00 0.00 71 1019.2
20260906090536 19 39 3.2 6.4 0.00 0.00 0.00 71 1019.2
20260906090116 19 46 1.6 4.8 0.00 0.00 0.00 70 1019.1
20260906085533 19 27 1.6 4.8 0.00 0.00 0.00 70 1019.1
20260906085036 19 30 1.6 4.8 0.00 0.00 0.00 70 1019.0
20260906084613 19 41 0.0 4.8 0.00 0.00 0.00 70 1019.0
20260906084037 19 41 1.6 6.4 0.00 0.00 0.00 71 1018.9
20260906083537 19 67 1.6 6.4 0.00 0.00 0.00 71 1019.0
20260906083056 19 65 3.2 6.4 0.00 0.00 0.00 70 1019.1
20260906082536 19 27 1.6 4.8 0.00 0.00 0.00 69 1019.1
20260906082037 19 36 1.6 4.8 0.00 0.00 0.00 69 1019.3
20260906081558 19 31 1.6 6.4 0.00 0.00 0.00 68 1019.3
20260906081037 19 31 1.6 9.7 0.00 0.00 0.00 68 1019.2
20260906080537 19 46 1.6 9.7 0.00 0.00 0.00 69 1019.2
20260906080122 19 41 4.8 16.1 0.00 0.00 0.00 68 1019.3
20260906075536 19 30 6.4 16.1 0.00 0.00 0.00 68 1019.0
20260906075036 18 56 6.4 14.5 0.00 0.00 0.00 68 1019.2
20260906074607 18 17 4.8 14.5 0.00 0.00 0.00 69 1019.1
20260906074034 18 359 6.4 14.5 0.00 0.00 0.00 69 1019.0
20260906073537 18 55 6.4 11.3 0.00 0.00 0.00 69 1019.1
20260906073109 18 36 4.8 12.9 0.00 0.00 0.00 69 1019.1
20260906072534 18 46 4.8 12.9 0.00 0.00 0.00 69 1019.2
20260906072036 18 13 6.4 12.9 0.00 0.00 0.00 68 1019.3
20260906071559 18 31 3.2 11.3 0.00 0.00 0.00 67 1019.2
20260906071037 19 347 1.6 4.8 0.00 0.00 0.00 66 1019.1
20260906070537 19 311 0.0 6.4 0.00 0.00 0.00 65 1019.4
20260906070058 19 0 1.6 8.0 0.00 0.00 0.00 65 1019.5
20260906065539 19 342 3.2 8.0 0.00 0.00 0.00 65 1019.6
20260906065038 20 5 1.6 6.4 0.00 0.00 0.00 62 1019.4
20260906064555 20 0 0.0 6.4 0.00 0.00 0.00 64 1019.4
20260906064037 20 33 1.6 6.4 0.00 0.00 0.00 61 1019.4
20260906063535 20 335 1.6 4.8 0.00 0.00 0.00 59 1019.3
20260906063052 20 0 0.0 3.2 0.00 0.00 0.00 59 1019.4
20260906062537 20 308 0.0 4.8 0.00 0.00 0.00 61 1019.5
20260906062038 20 0 0.0 4.8 0.00 0.00 0.00 62 1019.4
20260906061605 20 256 0.0 4.8 0.00 0.00 0.00 59 1019.3
20260906061037 20 256 0.0 8.0 0.00 0.00 0.00 59 1019.3
20260906060539 20 0 0.0 17.7 0.00 0.00 0.00 59 1019.1
20260906060059 20 38 6.4 17.7 0.00 0.00 0.00 59 1018.9
20260906055538 21 60 8.0 12.9 0.00 0.00 0.00 58 1018.9
20260906055038 21 25 8.0 16.1 0.00 0.00 0.00 57 1018.8
20260906054555 21 71 6.4 16.1 0.00 0.00 0.00 56 1018.8
20260906054039 21 57 8.0 16.1 0.00 0.00 0.00 56 1018.9
20260906053538 21 64 4.8 9.7 0.00 0.00 0.00 56 1019.1
20260906053058 21 0 0.0 14.5 0.00 0.00 0.00 54 1019.2
20260906052541 21 42 3.2 20.9 0.00 0.00 0.00 54 1018.9
20260906052039 21 69 11.3 22.5 0.00 0.00 0.00 53 1018.8
20260906051602 21 74 12.9 22.5 0.00 0.00 0.00 53 1018.8
20260906051039 22 58 11.3 24.1 0.00 0.00 0.00 51 1018.7
20260906050538 22 106 14.5 27.4 0.00 0.00 0.00 50 1018.7
20260906050106 22 81 14.5 27.4 0.00 0.00 0.00 48 1018.4
20260906045539 22 40 14.5 27.4 0.00 0.00 0.00 47 1018.3
20260906045039 22 74 11.3 24.1 0.00 0.00 0.00 47 1018.3
20260906044554 22 83 6.4 16.1 0.00 0.00 0.00 44 1018.4
20260906044040 22 54 3.2 11.3 0.00 0.00 0.00 43 1018.3
20260906043542 22 64 4.8 11.3 0.00 0.00 0.00 43 1018.1
20260906043103 22 69 3.2 8.0 0.00 0.00 0.00 45 1018.1
20260906042537 22 48 4.8 8.0 0.00 0.00 0.00 44 1017.9
20260906042040 22 13 4.8 8.0 0.00 0.00 0.00 41 1017.8
20260906041604 22 357 0.0 14.5 0.00 0.00 0.00 42 1017.8
20260906041039 22 15 3.2 14.5 0.00 0.00 0.00 41 1017.9
20260906040538 22 61 8.0 14.5 0.00 0.00 0.00 43 1018.0
20260906040059 22 42 3.2 8.0 0.00 0.00 0.00 47 1017.9
20260906035542 23 296 1.6 6.4 0.00 0.00 0.00 44 1017.7
20260906035038 23 302 0.0 12.9 0.00 0.00 0.00 43 1017.7
20260906034613 23 325 1.6 14.5 0.00 0.00 0.00 43 1017.6
20260906034038 23 2 4.8 14.5 0.00 0.00 0.00 44 1017.6
20260906033539 22 6 3.2 11.3 0.00 0.00 0.00 44 1017.6
20260906033103 23 347 4.8 12.9 0.00 0.00 0.00 44 1017.6
20260906032537 23 32 3.2 12.9 0.00 0.00 0.00 43 1017.5
20260906032039 23 40 6.4 12.9 0.00 0.00 0.00 43 1017.6
20260906031557 23 18 3.2 11.3 0.00 0.00 0.00 42 1017.7
20260906031038 23 15 4.8 11.3 0.00 0.00 0.00 42 1017.6
20260906030558 23 1 3.2 16.1 0.00 0.00 0.00 40 1017.5
20260906030057 24 49 6.4 16.1 0.00 0.00 0.00 39 1017.5
20260906025538 24 76 9.7 16.1 0.00 0.00 0.00 38 1017.5
20260906025038 24 96 4.8 11.3 0.00 0.00 0.00 38 1017.4
20260906024558 24 37 3.2 11.3 0.00 0.00 0.00 38 1017.3
20260906024039 24 48 6.4 17.7 0.00 0.00 0.00 39 1017.3
20260906023538 24 55 9.7 17.7 0.00 0.00 0.00 40 1017.4
20260906023101 24 56 1.6 12.9 0.00 0.00 0.00 44 1017.3
20260906022539 24 323 3.2 14.5 0.00 0.00 0.00 38 1017.2
20260906022038 25 1 1.6 19.3 0.00 0.00 0.00 38 1017.1
20260906021603 25 46 12.9 19.3 0.00 0.00 0.00 39 1017.2
20260906021044 25 41 1.6 6.4 0.00 0.00 0.00 40 1017.2
20260906020539 25 329 1.6 8.0 0.00 0.00 0.00 39 1017.0
20260906020100 25 6 1.6 11.3 0.00 0.00 0.00 38 1016.8
20260906015538 25 9 4.8 11.3 0.00 0.00 0.00 39 1016.8
20260906015038 26 19 3.2 9.7 0.00 0.00 0.00 38 1016.6
20260906014601 26 310 3.2 8.0 0.00 0.00 0.00 36 1016.6
20260906014038 26 319 1.6 8.0 0.00 0.00 0.00 36 1016.6
20260906013538 26 0 1.6 8.0 0.00 0.00 0.00 36 1016.5
20260906013107 26 329 3.2 14.5 0.00 0.00 0.00 36 1016.5
20260906012537 26 328 1.6 14.5 0.00 0.00 0.00 36 1016.6
20260906012038 26 338 4.8 14.5 0.00 0.00 0.00 35 1016.7
20260906011559 26 311 4.8 14.5 0.00 0.00 0.00 33 1016.7
20260906011038 27 327 4.8 14.5 0.00 0.00 0.00 33 1016.6
20260906010538 27 319 3.2 16.1 0.00 0.00 0.00 34 1016.7
20260906010056 27 0 3.2 19.3 0.00 0.00 0.00 32 1016.8
20260906005538 27 347 6.4 19.3 0.00 0.00 0.00 32 1016.7
20260906005038 27 347 9.7 19.3 0.00 0.00 0.00 31 1016.6
20260906004600 28 347 4.8 17.7 0.00 0.00 0.00 31 1016.7
20260906004037 28 347 8.0 20.9 0.00 0.00 0.00 30 1016.7
20260906003538 28 347 8.0 22.5 0.00 0.00 0.00 30 1016.7
20260906003056 29 347 8.0 30.6 0.00 0.00 0.00 29 1016.8
20260906002538 30 264 8.0 30.6 0.00 0.00 0.00 28 1016.8
20260906002041 30 250 14.5 30.6 0.00 0.00 0.00 27 1016.6
20260906001555 31 273 9.7 24.1 0.00 0.00 0.00 25 1016.6
20260906001038 31 276 11.3 24.1 0.00 0.00 0.00 25 1016.4
20260906000540 31 300 6.4 16.1 0.00 0.00 0.00 25 1016.5
20260906000108 31 302 3.2 9.7 0.00 0.00 0.00 26 1016.4
20260905235538 31 260 3.2 6.4 0.00 0.00 0.00 26 1016.4
20260905235038 31 260 0.0 3.2 0.00 0.00 0.00 26 1016.4
20260905234620 31 0 0.0 3.2 0.00 0.00 0.00 26 1016.4
20260905234038 31 37 0.0 6.4 0.00 0.00 0.00 28 1016.3
20260905233538 31 0 0.0 6.4 0.00 0.00 0.00 25 1016.3
20260905233058 31 0 0.0 6.4 0.00 0.00 0.00 28 1016.3
20260905232538 31 34 1.6 6.4 0.00 0.00 0.00 26 1016.2
20260905232038 31 11 1.6 6.4 0.00 0.00 0.00 27 1016.1
20260905231555 31 35 1.6 4.8 0.00 0.00 0.00 24 1016.1
20260905231038 31 0 1.6 4.8 0.00 0.00 0.00 24 1016.1
20260905230538 31 0 1.6 14.5 0.00 0.00 0.00 24 1016.0
20260905230105 32 87 3.2 14.5 0.00 0.00 0.00 26 1016.0
20260905225537 32 83 3.2 14.5 0.00 0.00 0.00 25 1015.9
20260905225038 32 129 6.4 14.5 0.00 0.00 0.00 24 1015.9
20260905224606 32 94 6.4 14.5 0.00 0.00 0.00 25 1016.0
20260905224039 32 0 1.6 16.1 0.00 0.00 0.00 22 1015.9
20260905223537 32 316 8.0 16.1 0.00 0.00 0.00 25 1015.9
20260905223057 32 85 4.8 16.1 0.00 0.00 0.00 26 1015.9
20260905222539 32 126 6.4 16.1 0.00 0.00 0.00 23 1015.8
20260905222038 32 108 4.8 19.3 0.00 0.00 0.00 22 1015.9
20260905221553 32 106 9.7 19.3 0.00 0.00 0.00 22 1015.9
20260905221038 32 129 4.8 17.7 0.00 0.00 0.00 23 1015.9
20260905220537 32 126 6.4 17.7 0.00 0.00 0.00 23 1015.9
20260905220113 32 40 6.4 19.3 0.00 0.00 0.00 22 1015.9
20260905215538 32 86 9.7 19.3 0.00 0.00 0.00 23 1016.0
20260905215038 32 73 12.9 19.3 0.00 0.00 0.00 23 1016.2
20260905214555 32 105 12.9 20.9 0.00 0.00 0.00 24 1016.2
20260905214037 32 86 12.9 20.9 0.00 0.00 0.00 25 1016.3
20260905213538 32 67 4.8 25.7 0.00 0.00 0.00 27 1016.3
20260905213054 32 83 16.1 25.7 0.00 0.00 0.00 24 1016.5